Location: Buchdorf
(48.7842°N, 10.8275°E)
Time: 08:26:12
(UTC+00:00)

GRACE-FO 2 - Pass Details

Date: 09 April 2020
Orbit: 482 x 505 km, 89.0° (Epoch: 25 May)

Event Time Altitude Azimuth Distance (km) Brightness Sun altitude
Exits shadow 19:52:14 29° 176° (S) 940 5.6 -17.6°
Maximum altitude 19:54:02 86° 87° (E) 509 4.5 -17.8°
Drops below altitude 10° 19:57:46 10° 1° (N) 1,714 7.8 -18.3°
Sets 19:59:52 0° 1° (N) 2,599 8.8 -18.6°
